Volver al catálogo

COSMOS 1275 DEB

ActivoPO
NORAD 39936·DEBRIS·🇷🇺 Russia

Lanzado Jun 4, 1981 desde Plesetsk Cosmodrome

Loading…

Próximos Pases (próximas 24 horas)

TLE

ActualizadoSource: Space-Track

Época: Sep 13, 2026, 09:51 UTC

1 39936U 81053MW  26256.41083494  .00000516  00000-0  39223-3 0  9995
2 39936  83.1480 134.3536 0057559 294.2029  65.3127 13.91251389610924

Sigue COSMOS 1275 DEB en tiempo real con AllMySat

Download on the App Store